Find Kosmos-532

NORAD ID: 6267 Int'l Des: 1972-087 Owner: OKB10 Country: SU operational
LEO

Current View

Loading 3D Globe...

About Kosmos-532

Kosmos-532 (NORAD 6267) is a satellite by OKB10 of SU. It operates in LEO orbit

Upcoming Passes

Passes for default location (London). Set your location on the main map for personalized predictions.

Altitude History

Loading altitude history...

Two-Line Element Set

1 6267U 72087E 26194.77952546 .00000009 00000-0 12621-3 0 9996
2 6267 74.0344 60.1915 0107598 106.8731 327.1412 12.69743642488670
Epoch: Jul 13, 2026 • Age: 13 hours

Current Status

Altitude 1488.1 km
Apogee / Perigee N/A
Velocity 7.08 km/s
Sub-Earth Point -60.21°S, 10.81°W
Type other

Most Searched